Hourly Weather Roundup
Issued by NWS Central Illinois

Home | Current Version | Previous Version | Text Only | Print | Product List | Glossary On
Versions: 1 2 3 4 5 6 7 8 9 10 11 12 13 14 15 16 17 18 19 20 21 22 23 24 25 26 27 28 29 30 31 32 33 34 35 36 37 38 39 40 41 42 43 44 45 46 47 48 49 50
000
NZUS43 KILX 271310
HWRILX

AREA WEATHER ROUNDUP
NATIONAL WEATHER SERVICE, LINCOLN IL
800 AM CDT SAT AUG 27 2016


CITY           SKY/WX    TMP DP  RH WIND       PRES   REMARKS
BLOOMINGTON    CLOUDY    71  71 100 SE5       30.08F FOG
CHAMPAIGN      CLOUDY    73  70  90 SW7       30.11R
DANVILLE       RAIN      71  71  99 CALM      30.08S
DECATUR        CLOUDY    73  71  93 SE7       30.09F
EFFINGHAM      PTSUNNY   72  72 100 CALM      30.12R
FLORA          CLOUDY    73  72  96 CALM      30.10S
GALESBURG      PTSUNNY   69  69  98 S7        30.05R
JACKSONVILLE   LGT RAIN  72  71  96 CALM      30.05S
LACON          CLOUDY    70  69  96 S3        30.04S
LAWRENCEVILLE  CLOUDY    74  72  93 W7        30.12R
LITCHFIELD     CLOUDY    72  69  91 SE6       30.08S
$$


CITY           SKY/WX    TMP DP  RH WIND       PRES   REMARKS
LINCOLN        CLOUDY    73  73 100 CALM      30.06S
MACOMB         PTSUNNY   69  69 100 S5        30.07S
MATTOON        MOSUNNY   72  69  90 SW3       30.11R
MT CARMEL AP   TSTM      72  71  96 CALM      30.12R
OLNEY-NOBLE AP CLOUDY    70  70 100 CALM      30.11S
PARIS          CLOUDY    72  72 100 CALM      30.12S FOG
PEORIA         CLOUDY    71  71 100 S5        30.04F
PONTIAC        LGT RAIN  72  72 100 CALM      30.07F
RANTOUL        CLOUDY    73  72  95 S5        30.11R
ROBINSON       CLOUDY    72  72  99 NW5       30.12R
SPRINGFIELD    MOSUNNY   75  71  87 SE3       30.06F
TAYLORVILLE    PTSUNNY   72  72  98 CALM      30.08F FOG
$$

...REGIONAL REPORTS...


CITY           SKY/WX    TMP DP  RH WIND       PRES   REMARKS
CHICAGO O`HARE LGT RAIN  70  69  97 S6        30.07F
KANKAKEE       CLOUDY    71  70  98 SE5       30.11R
MOLINE         MOSUNNY   72  69  90 S3        30.03S
MOUNT STERLING CLOUDY    71  70  96 SW5       30.05S
MOUNT VERNON   MOSUNNY   72  64  78 CALM      30.11R
PITTSFIELD     CLOUDY    72  71  98 CALM      30.07S
QUINCY         CLOUDY    70  70 100 S5        30.05S
ROCKFORD       CLOUDY    67  65  93 CALM      30.09R
$$


CITY           SKY/WX    TMP DP  RH WIND       PRES   REMARKS
BURLINGTON     CLOUDY    70  70 100 S9        30.04R
CEDAR RAPIDS   CLOUDY    67  67 100 E5        30.02R FOG
DES MOINES     FOG       65  63  93 CALM      30.03R VSB 1
KIRKSVILLE     MOSUNNY   68  66  93 CALM      30.07R
OTTUMWA        MOSUNNY   69  67  93 SW8       30.03R
ST LOUIS       CLOUDY    77  68  73 S5        30.08R
$$


CITY           SKY/WX    TMP DP  RH WIND       PRES   REMARKS
TERRE HAUTE    CLOUDY    73  71  93 CALM      30.12R
EVANSVILLE     CLOUDY    74  71  91 CALM      30.10R
INDIANAPOLIS   CLOUDY    73  70  90 CALM      30.11R
LAFAYETTE      TSTM      70  70 100 CALM      30.11R VSB 3/4
MADISON        CLOUDY    62  60  93 E10       30.09S
MILWAUKEE      CLOUDY    64  61  90 NE10      30.11S
$$





USA.gov is the U.S. government's official web portal to all federal, state and local government web resources and services.